Home   Weather   Johannesburg   Past weeks

Flag for South Africa Past Weather in Johannesburg, South Africa — Yesterday and Last 2 Weeks

Now
68 °F

Clear.


Feels Like: 68 °F
Forecast: 47 / 83 °F
Wind: 6 mph from Southeast

Location: Lanseria Civ / Mil

Current Time: Jan 18, 2017 at 10:22:01 pm

Latest Report: Jan 18, 2017 at 9:00 pm


Visibility: 10 mi

Pressure: 30.15 "Hg (24.57 "Hg at 1754m altitude)

Humidity: 43%

Dew Point: 45 °F

Location of JohannesburgLocation

Past Weather in Johannesburg — Graph

°F

Johannesburg Temperature Yesterday

Maximum temperature yesterday: 81 °F (at 5:00 pm)
Minimum temperature yesterday: 57 °F (at 5:00 am)
Average temperature yesterday: 68 °F

High & Low Weather Summary for the Past Weeks

 TemperatureHumidityPressure
High84 °F (Jan 16, 1:00 pm)94% (Jan 5, 1:00 am)30.27 "Hg (Jan 5, 1:00 am)
Low54 °F (Jan 18, 4:00 am)15% (Jan 18, 4:00 pm)29.92 "Hg (Jan 14, 4:00 pm)
Average70 °F66%30.10 "Hg
* Reported Jan 3 9:00 pm — Jan 18 9:00 pm, Johannesburg, Weather by CustomWeather, © 2017

Note: Actual official high and low records may vary slightly from our data, if they occured in-between our weather recording intervals... More about our weather records

Advertising

Johannesburg Weather History for the Previous 24 Hours

Scroll right to see more
 ConditionsComfort  
Time TempWeatherWind HumidityBarometerVisibility
9:00 pm
Wed, Jan 18
68 °FClear.6 mph43%30.15 "Hg10 mi
8:00 pm73 °FClear.6 mph31%30.12 "Hg10 mi
7:00 pm79 °FSunny.5 mph23%30.12 "Hg10 mi
6:00 pm82 °FPassing clouds.3 mph17%30.12 "HgN/A
5:00 pm82 °FSunny.5 mph16%30.12 "Hg10 mi
4:00 pm82 °FSunny.5 mph15%30.12 "Hg10 mi
3:00 pm82 °FPassing clouds.8 mph17%30.12 "HgN/A
2:00 pm81 °FSunny.6 mph18%30.15 "Hg10 mi
1:00 pm79 °FSunny.8 mph23%30.18 "Hg10 mi
12:00 pm75 °FSunny.6 mph31%30.18 "Hg10 mi
11:00 am73 °FSunny.5 mph41%30.21 "Hg10 mi
10:00 am68 °FSunny.3 mph43%30.24 "Hg10 mi
9:30 am66 °FPassing clouds.6 mph49%30.24 "HgN/A
9:00 am63 °FPassing clouds.7 mph52%30.24 "HgN/A
8:00 am59 °FPassing clouds.9 mph59%30.27 "HgN/A
7:00 am55 °FSunny.10 mph67%30.27 "Hg10 mi
6:00 am54 °FSunny.8 mph72%30.24 "Hg10 mi
5:00 am54 °FClear.9 mph72%30.24 "Hg10 mi
4:00 am54 °FCool.5 mph77%30.24 "HgN/A
3:00 am55 °FCool.10 mph72%30.24 "HgN/A
2:00 am57 °FCool.8 mph67%30.24 "HgN/A
1:00 am57 °FCool.12 mph67%30.27 "HgN/A
11:00 pm
Tue, Jan 17
61 °FCool.15 mph63%30.27 "HgN/A
10:00 pm64 °FClear.14 mph56%30.24 "Hg10 mi
Weather by CustomWeather, © 2017

See weather overviewHow to use our weather pages